Location: Ammerl�gen
(47.2167°N, 9.6000°E)
Time: 11:08:23
(UTC+00:00)

CZ-4 R/B DEB - Pass Details

Date: 26 October 2021
Orbit: 738 x 791 km, 98.5° (Epoch: 26 November)

Event Time Altitude Azimuth Distance (km) Brightness Sun altitude
Exits shadow 17:43:04 24° 69° (ENE) 1,526 ? -15.6°
Maximum altitude 17:43:26 24° 62° (ENE) 1,518 ? -15.7°
Drops below altitude 10° 17:47:19 10° 10° (N) 2,264 ? -16.3°
Sets 17:50:00 0° 357° (N) 3,197 ? -16.8°
